j
k
j a
j l
ISS 1 25544U 98067A 09027.19841559 .00009198 00000-0 77646-4 0 1500 2 25544 051.6433 308.7347 0007770 315.2448 193.1079 15.70605173583779
Show replies by date
[email protected]
Add to favorites Remove from favorites